Flag for U.S.A. Weather past 2 weeks in Warren, Michigan, U.S.A.

Now
72 °F

Sunny.


Feels Like: 77 °F
Forecast: 60 / 73 °F
Wind: 7 mph from Southeast

Location: Detroit City Airport

Current Time: Aug 28, 2014 at 7:42:04 PM

Latest Report: Aug 28, 2014 at 6:53 PM


Visibility: 10 mi

Pressure: 30.10 "Hg

Humidity: 49%

Dew point: 52 °F

Location of WarrenLocation

Historic Weather in Warren — Graph

°F

Warren temperature yesterday

Maximum temperature yesterday: 80 °F (at 2:53 PM)
Minimum temperature yesterday: 65 °F (at 11:53 PM)
Average temperature yesterday: 73 °F

Past Weeks' High & Low Weather Summary

 TemperatureHumidityPressure
High91 °F (Aug 26, 2:53 PM)90% (Aug 23, 6:53 AM)30.17 "Hg (Aug 23, 6:53 AM)
Low53 °F (Aug 15, 5:53 AM)30% (Aug 15, 2:53 PM)29.74 "Hg (Aug 19, 5:53 PM)
Average73 °F66%29.98 "Hg
* Reported Aug 13 5:53 PM — Aug 28 5:53 PM, Warren, Weather by CustomWeather, © 2014

Note: Actual official high and low records may vary slightly from our data, if they occured in-between our weather recording intervals... More about our weather records

Advertising

Warren weather history for previous 24 hours

 ConditionsComfort  
Time TempWeatherWind HumidityBarometerVisibility
5:53 PM
Aug 28
73 °FSunny.9 mph48%30.11 "Hg10 mi
4:53 PM75 °FSunny.No wind42%30.11 "Hg10 mi
3:53 PM74 °FSunny.6 mph48%30.12 "Hg10 mi
2:53 PM73 °FSunny.6 mph43%30.14 "Hg10 mi
1:53 PM73 °FSunny.No wind38%30.15 "Hg10 mi
12:53 PM71 °FSunny.5 mph42%30.16 "Hg10 mi
11:53 AM70 °FSunny.8 mph44%30.17 "Hg10 mi
10:53 AM68 °FPassing clouds.5 mph53%30.17 "Hg10 mi
9:53 AM65 °FScattered clouds.7 mph63%30.17 "Hg10 mi
8:53 AM64 °FSunny.7 mph65%30.17 "Hg10 mi
7:53 AM63 °FSunny.5 mph73%30.16 "Hg10 mi
6:53 AM61 °FPassing clouds.No wind81%30.15 "Hg10 mi
5:53 AM61 °FPassing clouds.3 mph81%30.14 "Hg10 mi
4:53 AM63 °FClear.3 mph75%30.13 "Hg10 mi
4:03 AM63 °FPassing clouds.5 mph75%30.13 "Hg10 mi
3:53 AM64 °FPassing clouds.6 mph73%30.11 "Hg10 mi
2:53 AM65 °FMostly cloudy.6 mph70%30.12 "Hg10 mi
1:53 AM65 °FOvercast.6 mph73%30.12 "Hg10 mi
12:53 AM66 °FPassing clouds.8 mph65%30.11 "Hg10 mi
11:53 PM
Aug 27
65 °FClear.5 mph70%30.12 "Hg10 mi
10:53 PM66 °FClear.5 mph73%30.11 "Hg10 mi
9:53 PM68 °FClear.8 mph73%30.10 "Hg10 mi
8:53 PM73 °FOvercast.9 mph55%30.08 "Hg10 mi
7:53 PM76 °FSunny.7 mph50%30.07 "Hg10 mi
Weather by CustomWeather, © 2014

See weather overviewHow to use our weather pages